Regional Weather Roundup
Issued by NWS

Home | Current Version | Previous Version | Graphics & Text | Print | Product List | Glossary On
Versions: 1 2 3 4 5 6 7 8 9 10 11 12 13 14 15 16 17 18 19 20 21 22 23 24 25 26 27 28 29 30 31 32 33 34 35 36 37 38 39 40 41 42 43 44 45 46 47 48 49 50
000
ASUS43 KMPX 011301
RWRMN
WEATHER ROUNDUP FOR MINNESOTA
NATIONAL WEATHER SERVICE TWIN CITIES/CHANHASSEN MN
800 AM CDT FRI AUG 01 2014


NOTE: "FAIR" INDICATES FEW OR NO CLOUDS BELOW 12,000 FEET WITH NO
SIGNIFICANT WEATHER AND/OR OBSTRUCTIONS TO VISIBILITY. N/A MEANS
CURRENT SKY AND/OR WEATHER CONDITIONS ARE NOT AVAILABLE.

MNZ060>063-068>070-011400-
   Twin Cities Metro

CITY           SKY/WX    TMP DP  RH WIND       PRES   REMARKS
TWIN CITIES    SUNNY     66  60  81 W3        30.06R
ST PAUL        SUNNY     67  62  84 NW3       30.06R
CRYSTAL        SUNNY     68  60  75 CALM      30.05R
BLAINE         PTSUNNY   68  64  88 W3        30.06R
LAKEVILLE      SUNNY     64  61  88 W3        30.07S
EDEN PRAIRIE   SUNNY     64  60  87 SW3       30.06R
SOUTH ST PAUL  SUNNY     67  60  77 W3        30.06S
LAKE ELMO      FAIR      64  63  94 CALM      30.07R
$$
MNZ001>005-007-008-013>017-022>024-027-028-011400-
   Northwest Minnesota

CITY           SKY/WX    TMP DP  RH WIND       PRES   REMARKS
BEMIDJI        SUNNY     61  58  91 W5        30.06S
HALLOCK        SUNNY     61  57  88 N3        30.06S
ROSEAU         SUNNY     59  54  82 CALM      30.06R
WARROAD        SUNNY     59  55  88 CALM      30.06R
THIEF RVR FALL SUNNY     63  57  82 CALM      30.07R
CROOKSTON      SUNNY     61  61 100 CALM      30.07R FOG
FOSSTON        SUNNY     61  59  94 CALM      30.08R FOG
DETROIT LAKES  MOSUNNY   64  61  88 CALM      30.08S
MOORHEAD       SUNNY     63  63 100 CALM      30.07R
PARK RAPIDS    MOSUNNY   60  58  92 CALM      30.07R
$$
MNZ006-009>011-018-025>026-011400-
   North Central Minnesota

CITY           SKY/WX    TMP DP  RH WIND       PRES   REMARKS
BAUDETTE       SUNNY     60  58  92 CALM      30.06R
FLAG ISLAND    SUNNY     66  59  77 CALM      30.04S
INTL FALLS     SUNNY     57  56  96 CALM      30.05R
WASKISH        SUNNY     59  59 100 CALM      30.05S
BIG FORK       SUNNY     57  55  94 SW1       30.06S
LONGVILLE      MOSUNNY   59  59 100 CALM      30.06S FOG
GRAND RAPIDS   SUNNY     61  57  88 CALM      30.07R
CRANE LAKE     SUNNY     52  50  93 CALM      30.07S FOG
ORR            MOSUNNY   52  50  93 CALM      30.04S
COOK           SUNNY     54  52  94 CALM      30.07S
$$
MNZ012-019>021-037-011400-
   Northeast Minnesota

CITY           SKY/WX    TMP DP  RH WIND       PRES   REMARKS
DULUTH         SUNNY     60  53  77 E3        30.07R
ELY            SUNNY     55  52  88 CALM      30.07S
HIBBING        SUNNY     57  52  83 CALM      30.07R
EVELETH        SUNNY     54  54 100 CALM      30.08R FOG
DULUTH HARBOR  SUNNY     61  55  82 NE8       30.07S
TWO HARBORS    SUNNY     57  52  82 N3        30.05S
SILVER BAY     SUNNY     57  55  94 CALM      30.05S
GRAND MARAIS     N/A     55  49  80 CALM      30.06R
G MARAIS ARPRT SUNNY     57  48  72 CALM      30.09S
$$
MNZ029>031-032-039>041-046>048-054>057-064-011400-
   West Central Minnesota

CITY           SKY/WX    TMP DP  RH WIND       PRES   REMARKS
FERGUS FALLS   SUNNY     63  61  94 CALM      30.07S
WHEATON        MOSUNNY   63  59  88 W3        30.09S
MORRIS         SUNNY     63  61  94 CALM      30.07S
ALEXANDRIA     MOSUNNY   63  60  90 W5        30.09R FOG
ELBOW LAKE     FAIR      63  60  90 W3        30.07S
WADENA         PTSUNNY   61  61 100 CALM      30.07S FOG
GLENWOOD       MOSUNNY   63  61  94 W6        30.09R FOG
APPLETON       SUNNY     63  61  94 CALM      30.07S
BENSON         SUNNY     61  61 100 CALM      30.08R FOG
ORTONVILLE     SUNNY     66  57  72 NW5       30.08S
MADISON        SUNNY     63  59  88 CALM      30.08S
WILLMAR        FAIR      61  57  88 CALM      30.09S
$$
MNZ033>034-036-042>043-049>051-058-059-011400-
   Central Minnesota

CITY           SKY/WX    TMP DP  RH WIND       PRES   REMARKS
ST CLOUD       SUNNY     65  60  84 CALM      30.06R
SAUK CENTRE    FAIR      64  60  87 CALM      30.08S
PAYNESVILLE    MOSUNNY   59  58  97 CALM      30.08S
AITKIN         SUNNY     61  55  82 CALM      30.05S
PINE RIVER     PTSUNNY   61  59  94 CALM      30.10R
STAPLES        PTSUNNY   61  59  94 W2        30.07R
LONG PRAIRIE   FAIR      64  61  88 CALM      30.08S
LITTLE FALLS   MOSUNNY   59  59 100 CALM      30.07R
LITCHFIELD       N/A     66  63  88 CALM      30.08R
BUFFALO        SUNNY     64  59  84 CALM      30.07S
MAPLE LAKE     SUNNY     66  61  86 CALM      30.07S
$$
MNZ037-044-045-052-053-011400-
   East Central Minnesota

CITY           SKY/WX    TMP DP  RH WIND       PRES   REMARKS
PRINCETON      MOSUNNY   63  61  94 CALM      30.06S FOG
MORA           SUNNY     59  57  94 CALM      30.07S
CAMBRIDGE      SUNNY     66  57  72 CALM      30.04S
RUSH CITY      SUNNY     63  61  94 CALM      30.06R
MOOSE LAKE     SUNNY     59  57  94 CALM      30.04S FOG
HINCKLEY       FAIR      61  61 100 CALM      30.06S
CLOQUET        SUNNY     61  55  82 CALM      30.07R
MCGREGOR       SUNNY     57  55  94 CALM      30.07S
$$
MNZ071>073-080-081-089-090-097-098-011400-
   Southwest Minnesota

CITY           SKY/WX    TMP DP  RH WIND       PRES   REMARKS
MONTEVIDEO     SUNNY     64  61  88 CALM      30.09S
GRANITE FALLS  SUNNY     60  56  89 CALM      30.10R
CANBY          SUNNY     64  58  81 W3        30.09S
MARSHALL       SUNNY     64  55  72 CALM      30.08S
REDWOOD FALLS  SUNNY     62  57  83 CALM      30.08R
OLIVIA         SUNNY     63  57  82 CALM      30.08R
PIPESTONE      SUNNY     61  57  88 CALM      30.11R
WINDOM         SUNNY     59  57  94 CALM      30.10S FOG
WORTHINGTON    SUNNY     61  59  94 CALM      30.12R
JACKSON        SUNNY     63  59  88 W3        30.11R
TRACY          SUNNY     65  58  80 W5        30.10R
SLAYTON        SUNNY     61  59  94 CALM      30.12R
$$
MNZ065>067-074>077-082>085-091>093-011400-
   South Central Minnesota

CITY           SKY/WX    TMP DP  RH WIND       PRES   REMARKS
MANKATO        SUNNY     61  55  82 CALM      30.08S
NEW ULM        SUNNY     61  61 100 CALM      30.08S
ST JAMES       SUNNY     64  57  77 CALM      30.10R
FAIRMONT       PTSUNNY   64  57  77 NW5       30.10R
GLENCOE        SUNNY     63  57  81 CALM      30.07S
FARIBAULT      SUNNY     64  57  77 CALM      30.08S
OWATONNA       SUNNY     63  57  82 CALM      30.09R
WASECA         SUNNY     55  52  88 CALM      30.10S
ALBERT LEA     SUNNY     64  61  88 CALM      30.09R
$$
MNZ078>079-086>088-094>096-011400-
   Southeast Minnesota

CITY           SKY/WX    TMP DP  RH WIND       PRES   REMARKS
ROCHESTER      SUNNY     64  56  75 W3        30.10R
RED WING       SUNNY     63  61  94 CALM      30.05S
STANTON        SUNNY     63  58  84 CALM      30.07R
DODGE CENTER   SUNNY     63  57  82 W3        30.09R
WINONA         SUNNY     63  57  82 CALM      30.07S
AUSTIN         SUNNY     59  57  94 CALM      30.09R
PRESTON        SUNNY     63  60  91 CALM      30.09S
$$
ABBREVIATIONS USED IN REMARKS
   TC - TEMPERATURES IN CELSIUS
  WCI - WIND CHILL INDEX
   HX - HEAT INDEX
  VSB - VISIBILITY
$$



USA.gov is the U.S. government's official web portal to all federal, state and local government web resources and services.